カタログに戻る

CZ-6A DEB

運用中SSO
NORAD 54954·DEBRIS·🇨🇳 China

打ち上げ Nov 11, 2022 から Taiyuan Satellite Launch Center

Loading…

次のパス (今後24時間)

TLE

最新Source: Space-Track

元期: Sep 14, 2026, 15:08 UTC

1 54954U 22151ST  26257.63106745  .00004212  00000-0  83126-3 0  9994
2 54954  98.6100 318.2454 0089923  33.7961 326.8925 14.60462268202648

AllMySatでCZ-6A DEBをリアルタイム追跡

Download on the App Store